Location: Newark
(41.9364°N, 2.8061°E)
Time: 03:11:58
(UTC+00:00)

Envisat - Visible Passes

Search period start: 20 January 2020 00:00
Search period end: 30 January 2020 00:00
Orbit: 764 x 766 km, 98.1° (Epoch: 19 January)

Date Brightness Start Highest point End Pass type
(mag) Time Alt. Az. Time Alt. Az. Time Alt. Az.
20 Jan 4.5 06:00:13 10° NNE 06:05:01 40° E 06:09:46 10° SSE visible
20 Jan 3.1 17:14:56 10° SSE 17:19:52 55° ENE 17:24:50 10° N visible
20 Jan 5.8 18:55:51 10° SW 18:59:14 18° W 19:02:37 10° NW visible
21 Jan 5.9 05:24:28 10° NE 05:27:57 18° E 05:31:26 10° SE visible
21 Jan 4.5 18:17:27 10° SSW 18:22:10 39° W 18:26:55 10° NNW visible
22 Jan 3.4 06:25:29 10° NNE 06:30:34 71° E 06:35:38 10° S visible
22 Jan 3.1 17:40:13 10° SSE 17:45:18 86° WSW 17:50:25 10° NNW visible
23 Jan 5.0 05:49:07 10° NNE 05:53:39 32° E 05:58:09 10° SSE visible
23 Jan 5.5 18:43:54 10° SW 18:47:49 22° W 18:51:47 10° NW visible
24 Jan 6.1 05:13:48 10° ENE 05:16:33 14° E 05:19:16 10° ESE visible
24 Jan 4.0 18:05:55 10° S 18:10:49 49° W 18:15:46 10° NNW visible
25 Jan 3.8 06:14:15 10° NNE 06:19:15 56° E 06:24:14 10° S visible
25 Jan 3.0 17:28:58 10° SSE 17:34:01 76° ENE 17:39:06 10° N visible
25 Jan 6.2 19:11:27 10° WSW 19:13:35 13° W 19:15:45 10° WNW visible
26 Jan 5.4 05:38:06 10° NE 05:42:17 25° E 05:46:26 10° SSE visible
26 Jan 5.1 18:32:06 10° SSW 18:36:27 28° W 18:40:48 10° NW visible
27 Jan 6.4 05:03:41 10° ENE 05:05:06 11° E 05:06:32 10° ESE visible
27 Jan 3.6 17:54:29 10° S 17:59:30 63° W 18:04:33 10° NNW visible
28 Jan 4.3 06:03:03 10° NNE 06:07:55 44° E 06:12:45 10° S visible
28 Jan 3.1 17:17:47 10° SSE 17:22:45 60° ENE 17:27:46 10° N visible
28 Jan 6.0 18:59:03 10° SW 19:02:10 16° W 19:05:17 10° NW visible
29 Jan 5.8 05:27:11 10° NE 05:30:54 20° E 05:34:36 10° SE visible
29 Jan 4.7 18:20:27 10° SSW 18:25:05 35° W 18:29:45 10° NNW visible
